Year,Month,Day,Hour,Minute,Value (Times are PST for temperature in C)
2015,07,28,00,00,15.70
2015,07,28,00,01,15.70
2015,07,28,00,02,15.70
2015,07,28,00,03,15.70
2015,07,28,00,04,15.70
2015,07,28,00,05,15.60
2015,07,28,00,06,15.60
2015,07,28,00,07,15.60
2015,07,28,00,08,15.60
2015,07,28,00,09,15.60
2015,07,28,00,10,15.60
2015,07,28,00,11,15.60
2015,07,28,00,12,15.60
2015,07,28,00,13,15.60
2015,07,28,00,14,15.60
2015,07,28,00,15,15.60
2015,07,28,00,16,15.60
2015,07,28,00,17,15.60
2015,07,28,00,18,15.60
2015,07,28,00,19,15.60
2015,07,28,00,20,15.60
2015,07,28,00,21,15.60
2015,07,28,00,22,15.60
2015,07,28,00,23,15.60
2015,07,28,00,24,15.60
2015,07,28,00,25,15.60
2015,07,28,00,26,15.60
2015,07,28,00,27,15.60
2015,07,28,00,28,15.60
2015,07,28,00,29,15.60
2015,07,28,00,30,15.60
2015,07,28,00,31,15.60
2015,07,28,00,32,15.60
2015,07,28,00,33,15.60
2015,07,28,00,34,15.60
2015,07,28,00,35,15.60
2015,07,28,00,36,15.60
2015,07,28,00,37,15.60
2015,07,28,00,38,15.60
2015,07,28,00,39,15.60
2015,07,28,00,40,15.60
2015,07,28,00,41,15.60
2015,07,28,00,42,15.60
2015,07,28,00,43,15.60
2015,07,28,00,44,15.60
2015,07,28,00,45,15.60
2015,07,28,00,46,15.60
2015,07,28,00,47,15.60
2015,07,28,00,48,15.60
2015,07,28,00,49,15.60
2015,07,28,00,50,15.60
2015,07,28,00,51,15.60
2015,07,28,00,52,15.60
2015,07,28,00,53,15.60
2015,07,28,00,54,15.60
2015,07,28,00,55,15.60
2015,07,28,00,56,15.60
2015,07,28,00,57,15.50
2015,07,28,00,58,15.50
2015,07,28,00,59,15.50
2015,07,28,01,00,15.40
2015,07,28,01,01,15.40
2015,07,28,01,02,15.40
2015,07,28,01,03,15.30
2015,07,28,01,04,15.30
2015,07,28,01,05,15.30
2015,07,28,01,06,15.30
2015,07,28,01,07,15.30
2015,07,28,01,08,15.30
2015,07,28,01,09,15.30
2015,07,28,01,10,15.30
2015,07,28,01,11,15.30
2015,07,28,01,12,15.30
2015,07,28,01,13,15.30
2015,07,28,01,14,15.30
2015,07,28,01,15,15.30
2015,07,28,01,16,15.30
2015,07,28,01,17,15.30
2015,07,28,01,18,15.30
2015,07,28,01,19,15.30
2015,07,28,01,20,15.30
2015,07,28,01,21,15.30
2015,07,28,01,22,15.20
2015,07,28,01,23,15.20
2015,07,28,01,24,15.20
2015,07,28,01,25,15.20
2015,07,28,01,26,15.10
2015,07,28,01,27,15.10
2015,07,28,01,28,15.10
2015,07,28,01,29,15.00
2015,07,28,01,30,15.00
2015,07,28,01,31,15.00
2015,07,28,01,32,15.00
2015,07,28,01,33,15.00
2015,07,28,01,34,15.00
2015,07,28,01,35,15.00
2015,07,28,01,36,15.00
2015,07,28,01,37,15.00
2015,07,28,01,38,15.00
2015,07,28,01,39,15.00
2015,07,28,01,40,15.00
2015,07,28,01,41,14.90
2015,07,28,01,42,14.90
2015,07,28,01,43,14.80
2015,07,28,01,44,14.80
2015,07,28,01,45,14.70
2015,07,28,01,46,14.70
2015,07,28,01,47,14.70
2015,07,28,01,48,14.60
2015,07,28,01,49,14.50
2015,07,28,01,50,14.50
2015,07,28,01,51,14.40
2015,07,28,01,52,14.40
2015,07,28,01,53,14.30
2015,07,28,01,54,14.30
2015,07,28,01,55,14.20
2015,07,28,01,56,14.20
2015,07,28,01,57,14.10
2015,07,28,01,58,14.10
2015,07,28,01,59,14.10
2015,07,28,02,00,14.00
2015,07,28,02,01,14.00
2015,07,28,02,02,13.90
2015,07,28,02,03,13.90
2015,07,28,02,04,13.80
2015,07,28,02,05,13.80
2015,07,28,02,06,13.80
2015,07,28,02,07,13.80
2015,07,28,02,08,13.70
2015,07,28,02,09,13.70
2015,07,28,02,10,13.70
2015,07,28,02,11,13.70
2015,07,28,02,12,13.70
2015,07,28,02,13,13.60
2015,07,28,02,14,13.60
2015,07,28,02,15,13.60
2015,07,28,02,16,13.60
2015,07,28,02,17,13.60
2015,07,28,02,18,13.50
2015,07,28,02,19,13.50
2015,07,28,02,20,13.50
2015,07,28,02,21,13.50
2015,07,28,02,22,13.50
2015,07,28,02,23,13.40
2015,07,28,02,24,13.40
2015,07,28,02,25,13.40
2015,07,28,02,26,13.40
2015,07,28,02,27,13.50
2015,07,28,02,28,13.60
2015,07,28,02,29,13.60
2015,07,28,02,30,13.70
2015,07,28,02,31,13.70
2015,07,28,02,32,13.80
2015,07,28,02,33,13.80
2015,07,28,02,34,13.80
2015,07,28,02,35,13.80
2015,07,28,02,36,13.90
2015,07,28,02,37,13.90
2015,07,28,02,38,14.00
2015,07,28,02,39,14.00
2015,07,28,02,40,14.10
2015,07,28,02,41,14.10
2015,07,28,02,42,14.10
2015,07,28,02,43,14.20
2015,07,28,02,44,14.20
2015,07,28,02,45,14.20
2015,07,28,02,46,14.20
2015,07,28,02,47,14.10
2015,07,28,02,48,14.10
2015,07,28,02,49,14.10
2015,07,28,02,50,14.10
2015,07,28,02,51,14.00
2015,07,28,02,52,14.00
2015,07,28,02,53,14.00
2015,07,28,02,54,13.90
2015,07,28,02,55,13.90
2015,07,28,02,56,13.90
2015,07,28,02,57,13.80
2015,07,28,02,58,13.80
2015,07,28,02,59,13.80
2015,07,28,03,00,13.80
2015,07,28,03,01,13.80
2015,07,28,03,02,13.80
2015,07,28,03,06,13.60
2015,07,28,03,07,13.60
2015,07,28,03,08,13.60
2015,07,28,03,09,13.50
2015,07,28,03,10,13.50
2015,07,28,03,11,13.40
2015,07,28,03,12,13.40
2015,07,28,03,13,13.40
2015,07,28,03,14,13.40
2015,07,28,03,15,13.30
2015,07,28,03,16,13.30
2015,07,28,03,17,13.30
2015,07,28,03,18,13.30
2015,07,28,03,19,13.20
2015,07,28,03,20,13.20
2015,07,28,03,21,13.20
2015,07,28,03,22,13.20
2015,07,28,03,23,13.20
2015,07,28,03,24,13.10
2015,07,28,03,25,13.10
2015,07,28,03,26,13.10
2015,07,28,03,27,13.00
2015,07,28,03,28,13.00
2015,07,28,03,29,13.00
2015,07,28,03,30,12.90
2015,07,28,03,31,12.90
2015,07,28,03,32,12.90
2015,07,28,03,33,12.90
2015,07,28,03,34,12.80
2015,07,28,03,35,12.80
2015,07,28,03,36,12.80
2015,07,28,03,37,12.80
2015,07,28,03,38,12.70
2015,07,28,03,39,12.70
2015,07,28,03,40,12.70
2015,07,28,03,41,12.70
2015,07,28,03,42,12.60
2015,07,28,03,43,12.60
2015,07,28,03,44,12.60
2015,07,28,03,45,12.60
2015,07,28,03,46,12.60
2015,07,28,03,47,12.60
2015,07,28,03,48,12.60
2015,07,28,03,49,12.50
2015,07,28,03,50,12.50
2015,07,28,03,51,12.50
2015,07,28,03,52,12.50
2015,07,28,03,53,12.40
2015,07,28,03,54,12.40
2015,07,28,03,55,12.40
2015,07,28,03,56,12.40
2015,07,28,03,57,12.40
2015,07,28,03,58,12.30
2015,07,28,03,59,12.30
2015,07,28,04,00,12.30
2015,07,28,04,01,12.30
2015,07,28,04,02,12.30
2015,07,28,04,03,12.30
2015,07,28,04,04,12.30
2015,07,28,04,05,12.20
2015,07,28,04,06,12.20
2015,07,28,04,07,12.20
2015,07,28,04,08,12.20
2015,07,28,04,09,12.20
2015,07,28,04,10,12.20
2015,07,28,04,11,12.20
2015,07,28,04,12,12.20
2015,07,28,04,13,12.10
2015,07,28,04,14,12.10
2015,07,28,04,15,12.10
2015,07,28,04,16,12.10
2015,07,28,04,17,12.10
2015,07,28,04,18,12.10
2015,07,28,04,19,12.00
2015,07,28,04,20,12.00
2015,07,28,04,21,12.00
2015,07,28,04,22,12.00
2015,07,28,04,23,12.00
2015,07,28,04,24,12.00
2015,07,28,04,25,11.90
2015,07,28,04,26,11.90
2015,07,28,04,27,11.90
2015,07,28,04,28,11.90
2015,07,28,04,29,11.90
2015,07,28,04,30,11.90
2015,07,28,04,31,11.90
2015,07,28,04,32,11.80
2015,07,28,04,33,11.80
2015,07,28,04,34,11.80
2015,07,28,04,35,11.80
2015,07,28,04,36,11.80
2015,07,28,04,37,11.80
2015,07,28,04,38,11.80
2015,07,28,04,39,11.80
2015,07,28,04,40,11.80
2015,07,28,04,41,11.80
2015,07,28,04,42,11.80
2015,07,28,04,43,11.80
2015,07,28,04,44,11.80
2015,07,28,04,45,11.70
2015,07,28,04,46,11.70
2015,07,28,04,47,11.70
2015,07,28,04,48,11.70
2015,07,28,04,49,11.70
2015,07,28,04,50,11.70
2015,07,28,04,51,11.60
2015,07,28,04,52,11.60
2015,07,28,04,53,11.60
2015,07,28,04,54,11.60
2015,07,28,04,55,11.60
2015,07,28,04,56,11.60
2015,07,28,04,57,11.50
2015,07,28,04,58,11.50
2015,07,28,04,59,11.50
2015,07,28,05,00,11.50
2015,07,28,05,01,11.50
2015,07,28,05,02,11.40
2015,07,28,05,03,11.40
2015,07,28,05,04,11.40
2015,07,28,05,05,11.40
2015,07,28,05,06,11.40
2015,07,28,05,07,11.40
2015,07,28,05,08,11.40
2015,07,28,05,09,11.40
2015,07,28,05,10,11.30
2015,07,28,05,11,11.30
2015,07,28,05,12,11.30
2015,07,28,05,13,11.30
2015,07,28,05,14,11.30
2015,07,28,05,15,11.30
2015,07,28,05,16,11.30
2015,07,28,05,17,11.30
2015,07,28,05,18,11.30
2015,07,28,05,19,11.30
2015,07,28,05,20,11.30
2015,07,28,05,21,11.30
2015,07,28,05,22,11.30
2015,07,28,05,23,11.30
2015,07,28,05,24,11.30
2015,07,28,05,25,11.20
2015,07,28,05,26,11.20
2015,07,28,05,27,11.20
2015,07,28,05,28,11.20
2015,07,28,05,29,11.20
2015,07,28,05,30,11.20
2015,07,28,05,31,11.20
2015,07,28,05,32,11.20
2015,07,28,05,33,11.20
2015,07,28,05,34,11.20
2015,07,28,05,35,11.20
2015,07,28,05,36,11.20
2015,07,28,05,37,11.20
2015,07,28,05,38,11.20
2015,07,28,05,39,11.20
2015,07,28,05,40,11.20
2015,07,28,05,41,11.20
2015,07,28,05,42,11.20
2015,07,28,05,43,11.20
2015,07,28,05,44,11.10
2015,07,28,05,45,11.10
2015,07,28,05,46,11.10
2015,07,28,05,47,11.10
2015,07,28,05,48,11.10
2015,07,28,05,49,11.10
2015,07,28,05,50,11.00
2015,07,28,05,51,11.00
2015,07,28,05,52,11.00
2015,07,28,05,53,11.00
2015,07,28,05,54,11.00
2015,07,28,05,55,10.90
2015,07,28,05,56,10.90
2015,07,28,05,57,10.90
2015,07,28,05,58,10.90
2015,07,28,05,59,10.90
2015,07,28,06,00,10.90
2015,07,28,06,01,10.90
2015,07,28,06,02,10.80
2015,07,28,06,03,10.80
2015,07,28,06,04,10.80
2015,07,28,06,05,10.80
2015,07,28,06,06,10.80
2015,07,28,06,07,10.80
2015,07,28,06,08,10.80
2015,07,28,06,09,10.80
2015,07,28,06,10,10.70
2015,07,28,06,11,10.70
2015,07,28,06,12,10.70
2015,07,28,06,13,10.70
2015,07,28,06,14,10.70
2015,07,28,06,15,10.70
2015,07,28,06,16,10.70
2015,07,28,06,17,10.60
2015,07,28,06,18,10.70
2015,07,28,06,19,10.70
2015,07,28,06,20,10.70
2015,07,28,06,21,10.70
2015,07,28,06,22,10.70
2015,07,28,06,23,10.80
2015,07,28,06,24,10.80
2015,07,28,06,25,10.80
2015,07,28,06,26,10.80
2015,07,28,06,27,10.80
2015,07,28,06,28,10.80
2015,07,28,06,29,10.80
2015,07,28,06,30,10.80
2015,07,28,06,31,10.90
2015,07,28,06,32,10.90
2015,07,28,06,33,10.90
2015,07,28,06,34,10.90
2015,07,28,06,35,10.90
2015,07,28,06,36,10.90
2015,07,28,06,37,10.90
2015,07,28,06,38,10.90
2015,07,28,06,39,11.00
2015,07,28,06,40,11.00
2015,07,28,06,41,11.00
2015,07,28,06,42,11.00
2015,07,28,06,43,11.00
2015,07,28,06,44,11.00
2015,07,28,06,45,11.00
2015,07,28,06,46,11.00
2015,07,28,06,47,11.00
2015,07,28,06,48,11.00
2015,07,28,06,49,11.10
2015,07,28,06,50,11.10
2015,07,28,06,51,11.10
2015,07,28,06,52,11.10
2015,07,28,06,53,11.10
2015,07,28,06,54,11.10
2015,07,28,06,55,11.10
2015,07,28,06,56,11.10
2015,07,28,06,57,11.10
2015,07,28,06,58,11.10
2015,07,28,06,59,11.10
2015,07,28,07,00,11.20
2015,07,28,07,01,11.20
2015,07,28,07,02,11.20
2015,07,28,07,03,11.20
2015,07,28,07,04,11.30
2015,07,28,07,05,11.30
2015,07,28,07,06,11.40
2015,07,28,07,07,11.40
2015,07,28,07,08,11.50
2015,07,28,07,09,11.50
2015,07,28,07,10,11.60
2015,07,28,07,11,11.60
2015,07,28,07,12,11.60
2015,07,28,07,13,11.70
2015,07,28,07,14,11.70
2015,07,28,07,15,11.70
2015,07,28,07,16,11.80
2015,07,28,07,17,11.80
2015,07,28,07,18,11.90
2015,07,28,07,19,11.90
2015,07,28,07,20,12.00
2015,07,28,07,21,12.00
2015,07,28,07,22,12.10
2015,07,28,07,23,12.20
2015,07,28,07,24,12.20
2015,07,28,07,25,12.30
2015,07,28,07,26,12.40
2015,07,28,07,27,12.50
2015,07,28,07,28,12.60
2015,07,28,07,29,12.70
2015,07,28,07,30,12.80
2015,07,28,07,31,13.00
2015,07,28,07,32,13.10
2015,07,28,07,33,13.30
2015,07,28,07,34,13.40
2015,07,28,07,35,13.60
2015,07,28,07,36,13.70
2015,07,28,07,37,13.90
2015,07,28,07,38,14.00
2015,07,28,07,39,14.20
2015,07,28,07,40,14.30
2015,07,28,07,41,14.50
2015,07,28,07,42,14.60
2015,07,28,07,43,14.70
2015,07,28,07,44,14.90
2015,07,28,07,45,15.00
2015,07,28,07,46,15.00
2015,07,28,07,47,15.20
2015,07,28,07,48,15.40
2015,07,28,07,49,15.50
2015,07,28,07,50,15.70
2015,07,28,07,51,15.80
2015,07,28,07,52,16.00
2015,07,28,07,53,16.10
2015,07,28,07,54,16.20
2015,07,28,07,55,16.30
2015,07,28,07,56,16.30
2015,07,28,07,57,16.40
2015,07,28,07,58,16.50
2015,07,28,07,59,16.50
2015,07,28,08,00,16.60
2015,07,28,08,01,16.60
2015,07,28,08,02,16.60
2015,07,28,08,03,16.60
2015,07,28,08,04,16.70
2015,07,28,08,05,16.70
2015,07,28,08,06,16.70
2015,07,28,08,07,16.80
2015,07,28,08,08,16.80
2015,07,28,08,09,16.90
2015,07,28,08,10,16.90
2015,07,28,08,11,17.00
2015,07,28,08,12,17.00
2015,07,28,08,13,17.10
2015,07,28,08,14,17.10
2015,07,28,08,15,17.20
2015,07,28,08,16,17.20
2015,07,28,08,17,17.20
2015,07,28,08,18,17.20
2015,07,28,08,19,17.30
2015,07,28,08,20,17.40
2015,07,28,08,21,17.60
2015,07,28,08,22,17.70
2015,07,28,08,23,17.80
2015,07,28,08,24,18.00
2015,07,28,08,25,18.10
2015,07,28,08,26,18.20
2015,07,28,08,27,18.30
2015,07,28,08,28,18.30
2015,07,28,08,29,18.30
2015,07,28,08,30,18.40
2015,07,28,08,31,18.40
2015,07,28,08,32,18.50
2015,07,28,08,33,18.60
2015,07,28,08,34,18.70
2015,07,28,08,35,18.80
2015,07,28,08,36,18.90
2015,07,28,08,37,18.90
2015,07,28,08,38,19.00
2015,07,28,08,39,18.90
2015,07,28,08,40,18.90
2015,07,28,08,41,18.80
2015,07,28,08,42,18.80
2015,07,28,08,43,18.80
2015,07,28,08,44,18.70
2015,07,28,08,45,18.70
2015,07,28,08,46,18.80
2015,07,28,08,47,18.90
2015,07,28,08,48,18.90
2015,07,28,08,49,19.00
2015,07,28,08,50,19.10
2015,07,28,08,51,19.20
2015,07,28,08,52,19.20
2015,07,28,08,53,19.20
2015,07,28,08,54,19.20
2015,07,28,08,55,19.20
2015,07,28,08,56,19.20
2015,07,28,08,57,19.20
2015,07,28,08,58,19.20
2015,07,28,08,59,19.10
2015,07,28,09,00,19.10
2015,07,28,09,01,19.00
2015,07,28,09,02,19.10
2015,07,28,09,03,19.10
2015,07,28,09,04,19.00
2015,07,28,09,05,19.00
2015,07,28,09,06,19.00
2015,07,28,09,07,19.00
2015,07,28,09,08,19.00
2015,07,28,09,09,19.00
2015,07,28,09,10,19.00
2015,07,28,09,11,19.10
2015,07,28,09,12,19.10
2015,07,28,09,13,19.20
2015,07,28,09,14,19.30
2015,07,28,09,15,19.30
2015,07,28,09,16,19.30
2015,07,28,09,17,19.30
2015,07,28,09,18,19.20
2015,07,28,09,19,19.20
2015,07,28,09,20,19.20
2015,07,28,09,21,19.20
2015,07,28,09,22,19.20
2015,07,28,09,23,19.20
2015,07,28,09,24,19.20
2015,07,28,09,25,19.20
2015,07,28,09,26,19.30
2015,07,28,09,27,19.40
2015,07,28,09,28,19.40
2015,07,28,09,29,19.50
2015,07,28,09,30,19.60
2015,07,28,09,31,19.60
2015,07,28,09,32,19.60
2015,07,28,09,33,19.60
2015,07,28,09,34,19.60
2015,07,28,09,35,19.60
2015,07,28,09,36,19.60
2015,07,28,09,37,19.60
2015,07,28,09,38,19.70
2015,07,28,09,39,19.80
2015,07,28,09,40,19.90
2015,07,28,09,41,19.90
2015,07,28,09,42,20.00
2015,07,28,09,43,20.10
2015,07,28,09,44,20.10
2015,07,28,09,45,20.10
2015,07,28,09,46,20.10
2015,07,28,09,47,20.10
2015,07,28,09,48,20.10
2015,07,28,09,49,20.10
2015,07,28,09,50,20.10
2015,07,28,09,51,20.20
2015,07,28,09,52,20.20
2015,07,28,09,53,20.20
2015,07,28,09,54,20.20
2015,07,28,09,55,20.20
2015,07,28,09,56,20.20
2015,07,28,09,57,20.20
2015,07,28,09,58,20.20
2015,07,28,09,59,20.20
2015,07,28,10,00,20.20
2015,07,28,10,01,20.20
2015,07,28,10,02,20.20
2015,07,28,10,03,20.10
2015,07,28,10,04,20.10
2015,07,28,10,05,20.10
2015,07,28,10,06,20.10
2015,07,28,10,07,20.20
2015,07,28,10,08,20.40
2015,07,28,10,09,20.50
2015,07,28,10,10,20.50
2015,07,28,10,11,20.50
2015,07,28,10,12,20.60
2015,07,28,10,13,20.70
2015,07,28,10,14,20.70
2015,07,28,10,15,20.80
2015,07,28,10,16,20.80
2015,07,28,10,17,20.80
2015,07,28,10,18,20.90
2015,07,28,10,19,20.90
2015,07,28,10,20,20.90
2015,07,28,10,21,20.80
2015,07,28,10,22,20.80
2015,07,28,10,23,20.80
2015,07,28,10,24,20.80
2015,07,28,10,25,20.80
2015,07,28,10,26,20.80
2015,07,28,10,27,20.90
2015,07,28,10,28,21.00
2015,07,28,10,29,21.00
2015,07,28,10,30,21.10
2015,07,28,10,31,21.20
2015,07,28,10,32,21.20
2015,07,28,10,33,21.20
2015,07,28,10,34,21.20
2015,07,28,10,35,21.30
2015,07,28,10,36,21.30
2015,07,28,10,37,21.30
2015,07,28,10,38,21.30
2015,07,28,10,39,21.40
2015,07,28,10,40,21.40
2015,07,28,10,41,21.40
2015,07,28,10,42,21.40
2015,07,28,10,43,21.40
2015,07,28,10,44,21.30
2015,07,28,10,45,21.30
2015,07,28,10,46,21.30
2015,07,28,10,47,21.30
2015,07,28,10,48,21.30
2015,07,28,10,49,21.30
2015,07,28,10,50,21.40
2015,07,28,10,51,21.40
2015,07,28,10,52,21.40
2015,07,28,10,53,21.30
2015,07,28,10,54,21.20
2015,07,28,10,55,21.10
2015,07,28,10,56,21.10
2015,07,28,10,57,21.00
2015,07,28,10,58,20.90
2015,07,28,10,59,20.80
2015,07,28,11,00,20.80
2015,07,28,11,01,20.80
2015,07,28,11,02,20.90
2015,07,28,11,03,20.90
2015,07,28,11,04,20.90
2015,07,28,11,05,21.00
2015,07,28,11,06,21.10
2015,07,28,11,07,21.20
2015,07,28,11,08,21.30
2015,07,28,11,09,21.30
2015,07,28,11,10,21.30
2015,07,28,11,11,21.40
2015,07,28,11,12,21.40
2015,07,28,11,13,21.40
2015,07,28,11,14,21.30
2015,07,28,11,15,21.30
2015,07,28,11,16,21.30
2015,07,28,11,17,21.30
2015,07,28,11,18,21.30
2015,07,28,11,19,21.20
2015,07,28,11,20,21.20
2015,07,28,11,21,21.30
2015,07,28,11,22,21.40
2015,07,28,11,23,21.40
2015,07,28,11,24,21.30
2015,07,28,11,25,21.30
2015,07,28,11,26,21.40
2015,07,28,11,27,21.40
2015,07,28,11,28,21.40
2015,07,28,11,29,21.50
2015,07,28,11,30,21.40
2015,07,28,11,31,21.40
2015,07,28,11,32,21.40
2015,07,28,11,33,21.40
2015,07,28,11,34,21.40
2015,07,28,11,35,21.50
2015,07,28,11,36,21.50
2015,07,28,11,37,21.50
2015,07,28,11,38,21.50
2015,07,28,11,39,21.50
2015,07,28,11,40,21.50
2015,07,28,11,41,21.40
2015,07,28,11,42,21.50
2015,07,28,11,43,21.60
2015,07,28,11,44,21.70
2015,07,28,11,45,21.80
2015,07,28,11,46,21.80
2015,07,28,11,47,21.70
2015,07,28,11,48,21.60
2015,07,28,11,49,21.70
2015,07,28,11,50,21.70
2015,07,28,11,51,21.80
2015,07,28,11,52,22.00
2015,07,28,11,53,22.00
2015,07,28,11,54,22.10
2015,07,28,11,55,22.10
2015,07,28,11,56,22.20
2015,07,28,11,57,22.30
2015,07,28,11,58,22.30
2015,07,28,11,59,22.30
2015,07,28,12,00,22.30
2015,07,28,12,01,22.20
2015,07,28,12,02,22.10
2015,07,28,12,03,22.00
2015,07,28,12,04,21.90
2015,07,28,12,05,21.90
2015,07,28,12,06,21.90
2015,07,28,12,07,21.90
2015,07,28,12,08,22.00
2015,07,28,12,09,22.00
2015,07,28,12,10,22.00
2015,07,28,12,11,22.00
2015,07,28,12,12,22.10
2015,07,28,12,13,22.10
2015,07,28,12,14,22.20
2015,07,28,12,15,22.30
2015,07,28,12,16,22.40
2015,07,28,12,17,22.50
2015,07,28,12,18,22.70
2015,07,28,12,19,22.70
2015,07,28,12,20,22.60
2015,07,28,12,21,22.40
2015,07,28,12,22,22.10
2015,07,28,12,23,22.00
2015,07,28,12,24,21.90
2015,07,28,12,25,21.90
2015,07,28,12,26,21.80
2015,07,28,12,27,21.70
2015,07,28,12,28,21.60
2015,07,28,12,29,21.60
2015,07,28,12,30,21.60
2015,07,28,12,31,21.60
2015,07,28,12,32,21.60
2015,07,28,12,33,21.80
2015,07,28,12,34,21.80
2015,07,28,12,35,21.80
2015,07,28,12,36,21.80
2015,07,28,12,37,21.80
2015,07,28,12,38,21.80
2015,07,28,12,39,21.80
2015,07,28,12,40,21.80
2015,07,28,12,41,21.90
2015,07,28,12,42,21.90
2015,07,28,12,43,22.00
2015,07,28,12,44,22.00
2015,07,28,12,45,21.90
2015,07,28,12,46,21.80
2015,07,28,12,47,21.80
2015,07,28,12,48,21.80
2015,07,28,12,49,21.70
2015,07,28,12,50,21.70
2015,07,28,12,51,21.70
2015,07,28,12,52,21.80
2015,07,28,12,53,21.80
2015,07,28,12,54,21.90
2015,07,28,12,55,22.00
2015,07,28,12,56,22.10
2015,07,28,12,57,22.10
2015,07,28,12,58,22.20
2015,07,28,12,59,22.30
2015,07,28,13,00,22.40
2015,07,28,13,01,22.40
2015,07,28,13,02,22.30
2015,07,28,13,03,22.30
2015,07,28,13,04,22.20
2015,07,28,13,05,22.30
2015,07,28,13,06,22.30
2015,07,28,13,07,22.30
2015,07,28,13,08,22.30
2015,07,28,13,09,22.50
2015,07,28,13,10,22.60
2015,07,28,13,11,22.60
2015,07,28,13,12,22.70
2015,07,28,13,13,22.70
2015,07,28,13,14,22.80
2015,07,28,13,15,22.80
2015,07,28,13,16,22.90
2015,07,28,13,17,22.80
2015,07,28,13,18,22.80
2015,07,28,13,19,22.80
2015,07,28,13,20,22.80
2015,07,28,13,21,22.80
2015,07,28,13,22,22.70
2015,07,28,13,23,22.60
2015,07,28,13,24,22.50
2015,07,28,13,25,22.50
2015,07,28,13,26,22.60
2015,07,28,13,27,22.50
2015,07,28,13,28,22.30
2015,07,28,13,29,22.30
2015,07,28,13,30,22.30
2015,07,28,13,31,22.40
2015,07,28,13,32,22.50
2015,07,28,13,33,22.70
2015,07,28,13,34,22.80
2015,07,28,13,35,22.80
2015,07,28,13,36,22.90
2015,07,28,13,37,23.00
2015,07,28,13,38,23.00
2015,07,28,13,39,23.10
2015,07,28,13,40,23.10
2015,07,28,13,41,23.10
2015,07,28,13,42,23.10
2015,07,28,13,43,23.10
2015,07,28,13,44,23.10
2015,07,28,13,45,23.10
2015,07,28,13,46,22.90
2015,07,28,13,47,22.80
2015,07,28,13,48,22.80
2015,07,28,13,49,22.80
2015,07,28,13,50,22.90
2015,07,28,13,51,22.90
2015,07,28,13,52,23.00
2015,07,28,13,53,23.10
2015,07,28,13,54,23.10
2015,07,28,13,55,23.10
2015,07,28,13,56,23.20
2015,07,28,13,57,23.20
2015,07,28,13,58,23.20
2015,07,28,13,59,23.30
2015,07,28,14,00,23.30
2015,07,28,14,01,23.40
2015,07,28,14,02,23.40
2015,07,28,14,03,23.30
2015,07,28,14,04,23.30
2015,07,28,14,05,23.10
2015,07,28,14,06,22.80
2015,07,28,14,07,22.60
2015,07,28,14,08,22.60
2015,07,28,14,09,22.50
2015,07,28,14,10,22.40
2015,07,28,14,11,22.30
2015,07,28,14,12,22.20
2015,07,28,14,13,22.40
2015,07,28,14,14,22.40
2015,07,28,14,15,22.50
2015,07,28,14,16,22.60
2015,07,28,14,17,22.60
2015,07,28,14,18,22.70
2015,07,28,14,19,22.60
2015,07,28,14,20,22.60
2015,07,28,14,21,22.60
2015,07,28,14,22,22.60
2015,07,28,14,23,22.60
2015,07,28,14,24,22.70
2015,07,28,14,25,22.60
2015,07,28,14,26,22.60
2015,07,28,14,27,22.70
2015,07,28,14,28,22.70
2015,07,28,14,29,22.80
2015,07,28,14,30,22.80
2015,07,28,14,31,22.90
2015,07,28,14,32,22.90
2015,07,28,14,33,23.00
2015,07,28,14,34,23.10
2015,07,28,14,35,23.30
2015,07,28,14,36,23.50
2015,07,28,14,37,23.60
2015,07,28,14,38,23.70
2015,07,28,14,39,23.70
2015,07,28,14,40,23.70
2015,07,28,14,41,23.70
2015,07,28,14,42,23.70
2015,07,28,14,43,23.70
2015,07,28,14,44,23.60
2015,07,28,14,45,23.40
2015,07,28,14,46,23.20
2015,07,28,14,47,23.00
2015,07,28,14,48,22.80
2015,07,28,14,49,22.70
2015,07,28,14,50,22.60
2015,07,28,14,51,22.70
2015,07,28,14,52,22.70
2015,07,28,14,53,22.70
2015,07,28,14,54,22.60
2015,07,28,14,55,22.50
2015,07,28,14,56,22.50
2015,07,28,14,57,22.60
2015,07,28,14,58,22.70
2015,07,28,14,59,22.80
2015,07,28,15,00,22.70
2015,07,28,15,01,22.70
2015,07,28,15,02,22.60
2015,07,28,15,03,22.70
2015,07,28,15,04,22.80
2015,07,28,15,05,22.90
2015,07,28,15,06,23.00
2015,07,28,15,07,23.10
2015,07,28,15,08,23.20
2015,07,28,15,09,23.20
2015,07,28,15,10,23.20
2015,07,28,15,11,23.20
2015,07,28,15,12,23.30
2015,07,28,15,13,23.30
2015,07,28,15,14,23.30
2015,07,28,15,15,23.30
2015,07,28,15,16,23.40
2015,07,28,15,17,23.40
2015,07,28,15,18,23.50
2015,07,28,15,19,23.50
2015,07,28,15,20,23.60
2015,07,28,15,21,23.70
2015,07,28,15,22,23.70
2015,07,28,15,23,23.70
2015,07,28,15,24,23.70
2015,07,28,15,25,23.70
2015,07,28,15,26,23.70
2015,07,28,15,27,23.80
2015,07,28,15,28,23.80
2015,07,28,15,29,23.80
2015,07,28,15,30,23.80
2015,07,28,15,31,23.70
2015,07,28,15,32,23.70
2015,07,28,15,33,23.70
2015,07,28,15,34,23.70
2015,07,28,15,35,23.70
2015,07,28,15,36,23.80
2015,07,28,15,37,23.90
2015,07,28,15,38,24.00
2015,07,28,15,39,24.10
2015,07,28,15,40,24.20
2015,07,28,15,41,24.10
2015,07,28,15,42,24.00
2015,07,28,15,43,24.00
2015,07,28,15,44,24.00
2015,07,28,15,45,23.90
2015,07,28,15,46,23.90
2015,07,28,15,47,24.00
2015,07,28,15,48,24.10
2015,07,28,15,49,24.20
2015,07,28,15,50,24.20
2015,07,28,15,51,24.30
2015,07,28,15,52,24.40
2015,07,28,15,53,24.50
2015,07,28,15,54,24.60
2015,07,28,15,55,24.60
2015,07,28,15,56,24.70
2015,07,28,15,57,24.70
2015,07,28,15,58,24.70
2015,07,28,15,59,24.70
2015,07,28,16,00,24.60
2015,07,28,16,01,24.60
2015,07,28,16,02,24.50
2015,07,28,16,03,24.40
2015,07,28,16,04,24.30
2015,07,28,16,05,24.30
2015,07,28,16,06,24.20
2015,07,28,16,07,24.20
2015,07,28,16,08,24.10
2015,07,28,16,09,24.20
2015,07,28,16,10,24.20
2015,07,28,16,11,24.10
2015,07,28,16,12,24.10
2015,07,28,16,13,24.20
2015,07,28,16,14,24.20
2015,07,28,16,15,24.10
2015,07,28,16,16,24.10
2015,07,28,16,17,24.10
2015,07,28,16,18,24.20
2015,07,28,16,19,24.20
2015,07,28,16,20,24.20
2015,07,28,16,21,24.20
2015,07,28,16,22,24.20
2015,07,28,16,23,24.20
2015,07,28,16,24,24.20
2015,07,28,16,25,24.20
2015,07,28,16,26,24.30
2015,07,28,16,27,24.40
2015,07,28,16,28,24.30
2015,07,28,16,29,24.30
2015,07,28,16,30,24.20
2015,07,28,16,31,24.20
2015,07,28,16,32,24.20
2015,07,28,16,33,24.10
2015,07,28,16,34,24.10
2015,07,28,16,35,24.00
2015,07,28,16,36,23.90
2015,07,28,16,37,23.80
2015,07,28,16,38,23.70
2015,07,28,16,39,23.70
2015,07,28,16,40,23.60
2015,07,28,16,41,23.60
2015,07,28,16,42,23.60
2015,07,28,16,43,23.70
2015,07,28,16,44,23.80
2015,07,28,16,45,23.80
2015,07,28,16,46,23.80
2015,07,28,16,47,23.90
2015,07,28,16,48,24.00
2015,07,28,16,49,24.10
2015,07,28,16,50,24.10
2015,07,28,16,51,24.20
2015,07,28,16,52,24.20
2015,07,28,16,53,24.30
2015,07,28,16,54,24.30
2015,07,28,16,55,24.30
2015,07,28,16,56,24.30
2015,07,28,16,57,24.40
2015,07,28,16,58,24.40
2015,07,28,16,59,24.50
2015,07,28,17,00,24.60
2015,07,28,17,01,24.60
2015,07,28,17,02,24.60
2015,07,28,17,03,24.60
2015,07,28,17,04,24.60
2015,07,28,17,05,24.60
2015,07,28,17,06,24.60
2015,07,28,17,07,24.60
2015,07,28,17,08,24.70
2015,07,28,17,09,24.70
2015,07,28,17,10,24.80
2015,07,28,17,11,24.80
2015,07,28,17,12,24.80
2015,07,28,17,13,24.80
2015,07,28,17,14,24.80
2015,07,28,17,15,24.90
2015,07,28,17,16,25.00
2015,07,28,17,17,25.10
2015,07,28,17,18,25.30
2015,07,28,17,19,25.30
2015,07,28,17,20,25.40
2015,07,28,17,21,25.40
2015,07,28,17,22,25.50